COSMOS 252 DEB *, 3690

Orbit data source: Space-Track

COSMOS 252 DEB *, 3690 is space debris in LEO originally from a launch on Fri, 01 Nov 1968 UTC launched from the Tyuratam Missile And Space Complex (TTMTR). Debris objects in space refer to the collection of defunct objects orbiting the Earth. Examples of debris include non-operational satellites, rocket bodies, and fragments generated from explosions, collisions, or faulty payload assembly.

Loading next visibility...
COSMOS 252 DEB * details
Identifier
3690, 1968-097AH
Orbit
LEO
Last TLE update9 hours ago
Origin
Flag of CISPKO (CIS)
ManufacturerUnknown
MissionSpacecraft
Bus & MotorUnknown
MassUnknown
Launch date (UTC)
1968-11-01 (56 years ago)
Launch vehicleUnknown
Launch site
Tyuratam Missile And Space Complex (TTMTR)
Object type
Payload
Rocket body
Debris
Shape & HBRUnknown
Radar Cross SectionSmall (<0.1 m²)

Expand to show TLE details & history

TLE from 9 hours ago
0 COSMOS 252 DEB *
1  3690U 68097AH  24361.07405700  .00000800  00000-0  79916-3 0  9990
2  3690  62.3397 262.6122 0798322 147.7804 217.4651 12.89802416621324
Epoch: 2024-12-26T01:46Z
Definitive object data (Epoch: 2024-12-26T01:46:38.524Z)
Latitude-0.00003°
Longitude140.89299°
Altitude1,807.18 km
Speed6.748 km/s
True Right ascension17h 30m 26s
True Declination0° 00' 00"
Sunlit
Object was in daylight at TLE epoch
Visualization TLE readout
Latitude-42.23354°
Longitude111.70604°
Altitude1,899.272 km
Speed6.672 km/s
Apparent Right ascension18h 21m 17s
Apparent Declination-52° 58' 01"
Sunlit
Object is in daylight
Visualization observer readout
Local Sidereal Time10:08:20
Azimuth128.483° SE
Elevation-49.943°
Doppler factor1
Orbital elements
Apogee altitude1,914.355 km
Perigee altitude688.224 km
Semi-major axis7,679.427 km
Eccentricity0.0798322
Inclination62.3397°
RAAN262.6122°
Arg. of periapsis147.7804°
True anomaly212.31684°
Mean anomaly217.4651°
Eccentric anomaly214.85127°
Mean motion3.22515 °/min
BSTAR0.00079916
Orbital period111.62 mins
Loading maneuver chart data...

COSMOS 252 DEB * Visibility forecast

Observer location: undefined°, undefined

Span
Click to sort rows by Start time (UTC) header in descending order
Start Az.
Max El. time (UTC)
Max El. Az.
Max El.
End time (UTC)
End Az.
16 mins2024-12-26 18:36:06.383Z185.009° SSW2024-12-26 18:45:06.383Z116.126° SE35.471°2024-12-26 18:52:06.383Z49.049° ENE
14 mins2024-12-26 20:33:06.383Z241.615° WSW2024-12-26 20:41:06.383Z320.853° NNW36.607°2024-12-26 20:47:06.383Z24.405° NE
6 mins2024-12-26 22:35:06.383Z310.263° NW2024-12-26 22:38:06.383Z336.264° NNW13.992°2024-12-26 22:41:06.383Z4.164° NNE
6 mins2024-12-27 02:32:06.383Z358.417° N2024-12-27 02:35:06.383Z39.593° NE18.182°2024-12-27 02:38:06.383Z79.363° E
8 mins2024-12-27 04:27:06.383Z314.909° NW2024-12-27 04:30:06.383Z270.003° WNW40.356°2024-12-27 04:35:06.383Z158.7° S
|